TIME,DELAY(SENSOR),PRES,OXYGEN,RAWTEMP,T(OPTODE),TCPHASE,FLUOR,BETA(BETA700),BETA(BETA412),BETA(BETA440),CDOM,C(CSC),ED(ED412.20),ED(ED444.00),ED(ED489.60),ED(ED554.30),LU(LU412.10),LU(LU443.90),LU(LU489.70),LU(LU554.70),COMP,TILTX,TILTY,CHECK
1360464348,5809,864.0200195312500000,34.5664901733398440,560.4827270507812000,4.4709339141845700,56.3581886291503900,55,100,99,78,82,15545,0,0,0,0,2147120713,2147773796,2147572370,2147567488,3469,2,13,18728
1360467944,5810,929.0000000000000000,40.0340003967285160,567.6903076171875000,4.2473130226135250,55.5880813598632800,55,98,99,78,81,15543,0,0,0,0,2147118848,2147769481,2147573138,2147570331,210,2,13,45452
1360471544,5811,940.0999755859375000,41.4427795410156250,569.0020141601562000,4.2065701484680180,55.3893699645996100,55,99,100,78,82,15544,0,0,0,0,2147122587,2147775094,2147573211,2147569636,955,2,13,22426
1360475144,5811,973.3400268554688000,41.8302917480468750,570.8331298828125000,4.1496682167053220,55.3538208007812500,55,98,100,77,82,15545,0,0,0,0,2147120676,2147775369,2147572278,2147569252,147,3,13,49369
1360478744,5807,980.2000122070312000,41.4801788330078100,570.3272705078125000,4.1653881072998050,55.3969497680664060,55,100,100,80,81,15542,0,0,0,0,2147127616,2147772553,2147575067,2147568557,109,2,13,39922
1360482344,5808,986.7999877929688000,41.3427314758300800,570.3040771484375000,4.1661090850830080,55.4190101623535160,56,98,100,78,82,15542,0,0,0,0,2147119140,2147768621,2147572662,2147567012,178,2,13,42772
1360485944,5810,993.2800292968750000,40.7140617370605500,569.6776123046875000,4.1855812072753910,55.5029411315918000,55,98,100,77,81,15539,0,0,0,0,2147125037,2147771154,2147573577,2147566153,143,2,13,64021
1360489544,5812,996.4099731445312000,40.5414009094238300,569.3726196289062000,4.1950569152832030,55.5282783508300800,55,98,100,79,83,15536,0,0,0,0,2147125686,2147773339,2147575917,2147566957,50,3,13,28450
1360493144,5807,994.2999877929688000,40.3645286560058600,569.4058227539062000,4.1940231323242190,55.5560302734375000,56,98,100,79,82,15542,0,0,0,0,2147119680,2147768896,2147574546,2147570084,191,3,13,11096
1360496744,5810,991.2999877929688000,40.7308692932128900,570.3298950195312000,4.1653099060058590,55.5115089416503900,55,97,101,77,82,15538,0,0,0,0,2147122505,2147773193,2147573065,2147568704,72,2,13,38412
1360500344,5812,987.7100219726562000,40.9799880981445300,570.4509277343750000,4.1615490913391110,55.4759597778320300,56,98,100,77,83,15537,0,0,0,0,2147121024,2147775067,2147573970,2147565668,95,3,13,19969
1360503944,5809,981.6300048828125000,41.0905990600585940,570.5847778320312000,4.1573867797851560,55.4573707580566400,55,100,100,78,81,15536,0,0,0,0,2147122084,2147770651,2147570980,2147569673,953,2,13,9093
1360507544,5809,981.2100219726562000,41.8404388427734400,571.7495117187500000,4.1211810111999510,55.3618087768554700,55,98,99,78,81,15538,0,0,0,0,2147122642,2147769307,2147573485,2147568155,3541,2,13,13029
1360511144,5809,986.6699829101562000,42.4410514831543000,572.0286865234375000,4.1124992370605470,55.2781982421875000,54,99,100,78,81,15534,0,0,0,0,2147119661,2147772416,2147572004,2147571136,206,2,13,61175
1360514744,5807,986.1500244140625000,42.1447792053222660,571.9332885742188000,4.1154651641845700,55.3183403015136700,55,101,101,78,82,15533,0,0,0,0,2147123008,2147776064,2147574546,2147568301,234,2,13,22076
1360518344,5811,987.1300048828125000,41.9677200317382800,572.2479858398438000,4.1056818962097170,55.3462905883789060,54,99,100,78,82,15534,0,0,0,0,2147121188,2147773540,2147576301,2147570139,3526,2,13,27282
1360521944,5811,985.5300292968750000,41.9272499084472660,572.4633789062500000,4.0989818572998050,55.3558387756347660,55,97,100,78,82,15536,0,0,0,0,2147126006,2147768749,2147574564,2147569216,3405,2,13,11465
1360525544,5812,990.1699829101562000,42.1722488403320300,572.2009277343750000,4.1071448326110840,55.3167304992675800,56,99,100,78,81,15536,0,0,0,0,2147120128,2147773851,2147577755,2147568457,3384,2,13,17990
1360529144,5808,987.0599975585938000,41.7938194274902340,572.0744018554688000,4.1110777854919430,55.3737602233886700,54,97,100,78,82,15534,0,0,0,0,2147122084,2147772406,2147570578,2147568530,3578,2,13,14768
1360532744,5810,994.3200073242188000,41.8182296752929700,571.5214233398438000,4.1282730102539060,55.3606796264648440,55,100,99,78,82,15533,0,0,0,0,2147121974,2147771584,2147576384,2147570907,3422,2,13,44293
1360536344,5810,986.4699707031250000,41.6265296936035160,572.0869140625000000,4.1106929779052730,55.3972892761230500,54,97,100,78,82,15532,0,0,0,0,2147125366,2147770112,2147580214,2147567817,3536,2,13,9907
1360539944,5811,987.6099853515625000,42.3028907775878900,572.2559814453125000,4.1054329872131350,55.3024787902832000,54,98,100,78,82,15529,0,0,0,0,2147122706,2147776484,2147577435,2147566966,76,2,13,27468
1360543544,5811,987.8200073242188000,42.3338394165039060,572.0974121093750000,4.1103649139404300,55.2953414916992200,55,99,100,78,82,15529,0,0,0,0,2147122084,2147769060,2147575798,2147567387,86,2,13,50565
1360547144,5808,983.4199829101562000,42.7459297180175800,572.8427734375000000,4.0871868133544920,55.2439117431640600,56,98,101,79,81,15531,0,0,0,0,2147121718,2147774784,2147578422,2147569536,422,2,13,42413
1360550744,5810,990.8300170898438000,42.6844406127929700,572.3458862304688000,4.1026358604431150,55.2425117492675800,55,99,99,78,81,15531,0,0,0,0,2147119634,2147771977,2147575670,2147567012,43,2,13,42241
1360554344,5808,987.1599731445312000,42.4414901733398440,572.4022827148438000,4.1008820533752440,55.2788887023925800,55,99,99,78,81,15529,0,0,0,0,2147123657,2147771968,2147578322,2147569024,116,2,13,2433
1360557944,5809,996.9299926757812000,42.4324111938476560,571.9379882812500000,4.1153178215026855,55.2790718078613300,55,99,100,78,82,15530,0,0,0,0,2147122166,2147771008,2147575680,2147567990,3592,2,13,33438
1360561544,5810,995.4799804687500000,41.1494712829589840,570.3933715820312000,4.1633338928222660,55.4457397460937500,54,97,100,78,82,15525,0,0,0,0,2147123885,2147770742,2147574253,2147567661,127,3,13,64177
1360565144,5808,997.2199707031250000,40.7028617858886700,570.0399780273438000,4.1743159294128420,55.5131111145019500,54,100,100,77,82,15524,0,0,0,0,2147123931,2147775296,2147577435,2147565897,374,2,13,30647
1360568744,5808,994.4400024414062000,40.6676292419433600,570.0488891601562000,4.1740422248840330,55.5187911987304700,55,97,99,77,81,15525,0,0,0,0,2147122358,2147767990,2147579949,2147569161,190,2,13,47608
1360572344,5809,993.5200195312500000,41.5167503356933600,571.2576904296875000,4.1364707946777340,55.4009590148925800,54,100,100,79,82,15525,0,0,0,0,2147121627,2147773302,2147574381,2147567625,331,3,13,25028
1360575944,5809,999.0100097656250000,41.3174591064453100,570.4215698242188000,4.1624598503112790,55.4251289367675800,54,97,101,77,81,15521,0,0,0,0,2147126098,2147768429,2147576064,2147569728,3455,2,13,45635
1360579544,5811,1003.9299926757812000,40.6397781372070300,569.9578247070312000,4.1768717765808105,55.5154113769531250,54,97,100,78,81,15522,0,0,0,0,2147123611,2147773046,2147573750,2147568768,3386,2,13,29827
1360583144,5811,995.0399780273438000,40.4985885620117200,570.0618286132812000,4.1736412048339840,55.5425186157226560,54,103,100,79,82,15523,0,0,0,0,2147124461,2147770020,2147574336,2147566381,3582,2,13,49348
1360586744,5812,996.4899902343750000,40.4382209777832000,570.3936767578125000,4.1633238792419430,55.5508003234863300,55,97,101,78,81,15526,0,0,0,0,2147124105,2147774445,2147571236,2147567579,281,2,13,54472
1360590344,5806,990.7899780273438000,41.7867584228515600,572.6713867187500000,4.0925140380859375,55.3823585510253900,56,97,100,79,82,15524,0,0,0,0,2147121115,2147768073,2147575789,2147569261,3449,2,13,27587
1360593944,5810,991.3400268554688000,42.2496681213378900,572.9255981445312000,4.0846099853515625,55.3133888244628900,54,99,99,78,81,15521,0,0,0,0,2147123437,2147773385,2147573705,2147569060,29,3,13,37958
1360597544,5810,995.3599853515625000,42.3206901550293000,572.2072753906250000,4.1069488525390625,55.2962684631347660,55,97,99,77,82,15520,0,0,0,0,2147125202,2147769078,2147568950,2147565878,490,2,13,60351
1360601144,5808,996.1099853515625000,41.3361892700195300,571.3378295898438000,4.1339821815490720,55.4287490844726560,55,98,100,78,82,15521,0,0,0,0,2147122285,2147769764,2147572589,2147571492,109,2,13,29355
1360604744,5809,999.4400024414062000,40.9010009765625000,571.2800292968750000,4.1357769966125490,55.4921112060546900,55,97,99,78,83,15522,0,0,0,0,2147124160,2147773385,2147571053,2147567862,169,2,13,40206
1360608344,5808,990.2199707031250000,40.8710784912109400,571.3491210937500000,4.1336312294006350,55.5037689208984400,55,99,101,77,82,15523,0,0,0,0,2147123648,2147772992,2147569654,2147567716,197,2,13,22384
1360610156,5810,992.8400268554688000,41.0086402893066400,572.5698852539062000,4.0956711769104000,55.4924583435058600,54,99,100,78,83,15525,0,0,0,0,2147124900,2147774491,2147574454,2147570139,154,2,13,403
